[[{"header":{"parameterUnit":"m.s-1","parameterCategory":1,"la1":30.2992,"la2":30.254,"lo1":-89.0895,"lo2":-89.0443,"dy":0.0025,"dx":0.0025,"nx":19,"ny":19,"refTime":"2026-05-07T03:00:00:Z","depth":0,"parameterNumber":2,"parameterNumberName":"U-component_of_WINDS"},"data":[0,0,0,0.9892,0.9893,0.9958,0.9958,1.0034,1.0035,0,0,0,0,0,0,0,0,0,0,0,0.9866,0.9866,0.9891,0.9893,0.9958,0.9958,1.0034,1.0035,0,0,0,0,0,0,0,0,0,0,0,0.9866,0.9866,0.9867,0.9893,0.9957,0.9958,1.0034,0.9988,0,0,0,0,0,0,0,0,0,0,0.9927,0.9896,0.9866,0.9867,0.9893,0.9957,0.9958,0.9986,0.9991,1.0002,0,1.0007,0,1.0022,1.004,1.004,0,0,0,0.9898,0.9892,0.9915,0.9867,0.9894,0.9957,0.993,0.9989,0.9995,1.0008,1.0008,1.0012,1.0023,1.004,1.004,1.0079,1.0079,0,0,0.9895,0.9875,0.9911,0.9918,0.9905,0.9928,0.9932,0.9992,0.9992,1.0009,1.0013,1.0025,1.004,1.0041,1.0079,1.0079,0,0,0,0.9881,0.9872,0.9894,0.9915,0.9927,0.9929,0.9934,0.999,0.9998,1.0014,1.0026,1.0041,1.0042,1.0079,1.0079,1.0055,0,0,0,0.9879,0.9864,0.9892,0.9881,0.9925,0.9959,0.993,0.9994,1.0002,1.0025,1.0041,1.0042,1.0079,1.0079,1.0056,1.0048,0,0,0,0.9864,0.9862,0.9869,0.9879,0.9906,0.9958,0.997,0.9996,1.0008,1.004,1.0043,1.0079,1.0079,1.0057,1.0049,1.0052,0,0,0,0.9843,0.9848,0.9869,0.9879,0.9905,0.9942,0.997,0.9999,1.0023,1.0041,1.0079,1.0079,1.0057,1.005,1.0053,1.0051,1.0048,0,0,0.9839,0.9847,0.9855,0.9875,0.9902,0.9934,0.996,1.0002,1.0024,1.006,1.0061,1.0056,1.0049,1.0052,1.0039,1.0037,0,0,0,0.9847,0.9852,0.9864,0.9885,0.9916,0.9943,0.9983,0.9999,1.003,1.0037,1.0059,1.0055,1.0058,1.0058,1.0056,1.006,1.0078,1.0078,1.0078,0.9812,0.9839,0.9854,0.9889,0.991,0.9951,0.9971,1.0,1.0022,1.0027,1.0038,1.0026,1.0026,1.0024,1.0028,1.0039,1.0039,1.0039,1.0039,0.9808,0.982,0.9849,0.9874,0.9903,0.9926,0.9967,0.9982,1.0008,1.002,1.0024,1.0035,1.0021,1.0025,1.0037,1.0038,1.0038,1.0038,1.0038,0.9788,0.9799,0.9817,0.9851,0.9875,0.9912,0.9935,0.9962,0.9987,0.9991,1.0006,1.0006,1.001,0.9996,0.9996,0.9996,0.9996,0.9996,0.9996,0.976,0.9782,0.9797,0.9831,0.9849,0.9876,0.9918,0.9937,0.9965,0.9983,0.9984,1.0006,1.0014,1.0015,0.9996,0.9996,0.9996,0.9996,0.9996,0.9746,0.9754,0.9777,0.9794,0.9837,0.986,0.9894,0.993,0.995,0.9962,0.9984,0.9985,0.9996,0.9998,0.9999,0.9977,0.9977,0.9977,0.9977,0.9729,0.9737,0.9767,0.9794,0.9823,0.9856,0.9885,0.9919,0.9956,0.997,0.9978,0.9982,0.9983,0.9994,0.9995,0.9997,0.9975,0.9975,0.9975,0.9722,0.9734,0.9752,0.9786,0.9822,0.9853,0.988,0.9912,0.9956,0.9975,0.9983,0.9983,0.999,0.9991,1.0009,1.0012,1.0016,0,0]},{"header":{"parameterUnit":"m.s-1","parameterCategory":1,"la1":30.2992,"la2":30.254,"lo1":-89.0895,"lo2":-89.0443,"dy":0.0025,"dx":0.0025,"nx":19,"ny":19,"refTime":"2026-05-07T03:00:00:Z","depth":0,"parameterNumber":3,"parameterNumberName":"V-component_of_WINDS"},"data":[0,0,0,0.0922,0.0924,0.0988,0.0988,0.1077,0.1078,0,0,0,0,0,0,0,0,0,0,0,0.091,0.0911,0.0922,0.0924,0.0988,0.0988,0.1077,0.1078,0,0,0,0,0,0,0,0,0,0,0,0.091,0.0911,0.0912,0.0924,0.0988,0.0988,0.1077,0.1026,0,0,0,0,0,0,0,0,0,0,0.0962,0.0959,0.0911,0.0912,0.0925,0.0988,0.0988,0.1023,0.1029,0.1052,0,0.1077,0,0.1079,0.1085,0.1085,0,0,0,0.0919,0.0954,0.0965,0.0912,0.0925,0.0988,0.0958,0.1026,0.1033,0.106,0.1078,0.1081,0.108,0.1085,0.1086,0.1236,0.1237,0,0,0.0915,0.0926,0.096,0.0969,0.0962,0.0956,0.096,0.103,0.105,0.1078,0.1083,0.1082,0.1086,0.1087,0.1235,0.1236,0,0,0,0.0909,0.0924,0.0932,0.0966,0.0977,0.0958,0.0962,0.1047,0.1049,0.1084,0.1083,0.1087,0.1088,0.1234,0.1235,0.1289,0,0,0,0.0906,0.092,0.0931,0.0938,0.0976,0.1013,0.0978,0.1044,0.1051,0.1082,0.1087,0.1089,0.1233,0.1235,0.1286,0.1313,0,0,0,0.0904,0.092,0.0931,0.0939,0.0967,0.1012,0.1018,0.1045,0.1051,0.1085,0.1089,0.1232,0.1235,0.1282,0.1308,0.1351,0,0,0,0.0905,0.0983,0.0932,0.1018,0.0966,0.1046,0.1017,0.1076,0.1112,0.1087,0.1233,0.1235,0.1281,0.1305,0.1348,0.1388,0.1407,0,0,0.1009,0.0996,0.1045,0.1002,0.1092,0.1035,0.1132,0.1157,0.1151,0.1207,0.1211,0.1287,0.1307,0.1351,0.1512,0.1527,0,0,0,0.1081,0.1116,0.1138,0.1171,0.119,0.1205,0.1213,0.122,0.1266,0.1183,0.1316,0.1328,0.1353,0.1371,0.1384,0.1401,0.1245,0.1245,0.1245,0.1246,0.123,0.1308,0.1298,0.1331,0.1333,0.1356,0.1366,0.1346,0.1376,0.1393,0.1493,0.1515,0.1524,0.1543,0.1415,0.1415,0.1416,0.1416,0.1394,0.1438,0.1402,0.1464,0.1445,0.1497,0.15,0.1482,0.1524,0.1481,0.1502,0.1454,0.1541,0.1556,0.142,0.1419,0.1418,0.1418,0.1418,0.1497,0.1515,0.1521,0.1561,0.1593,0.158,0.162,0.1604,0.1589,0.1609,0.162,0.1619,0.1613,0.1616,0.1616,0.1617,0.1617,0.1617,0.1617,0.1602,0.1605,0.1642,0.1661,0.1675,0.1692,0.1689,0.1703,0.1713,0.1697,0.1697,0.1669,0.1554,0.1522,0.1623,0.1622,0.1621,0.1621,0.162,0.1753,0.1714,0.177,0.1784,0.18,0.1829,0.1805,0.1832,0.184,0.1859,0.1825,0.1743,0.1729,0.1719,0.1693,0.1831,0.1831,0.1831,0.1831,0.1838,0.1827,0.1876,0.1898,0.1917,0.1899,0.1956,0.1952,0.1942,0.1944,0.1922,0.1887,0.1878,0.1869,0.1855,0.183,0.2,0.2001,0.2001,0.1927,0.1916,0.1971,0.1958,0.1967,0.1975,0.2026,0.205,0.2031,0.2007,0.1945,0.1938,0.1881,0.1864,0.184,0.182,0.1774,0,0]}]]